Regional Weather Roundup
Issued by NWS

Home | Current Version | Previous Version | Graphics & Text | Print | Product List | Glossary On
Versions: 1 2 3 4 5 6 7 8 9 10 11 12 13 14 15 16 17 18 19 20 21 22 23 24 25 26 27 28 29 30 31 32 33 34 35 36 37 38 39 40 41 42 43 44 45 46 47 48 49
187
ASUS45 KBOU 292107
RWRCO

WEATHER ROUNDUP FOR COLORADO
NATIONAL WEATHER SERVICE DENVER/BOULDER CO
300 PM MDT FRI APR 29 2016

NOTE: "FAIR" INDICATES FEW OR NO CLOUDS BELOW 12000 FEET WITH NO
SIGNIFICANT WEATHER AND/OR OBSTRUCTIONS TO VISIBILITY.

COZ001>005-013-030-031-292200-
...NORTHWEST COLORADO...

CITY           SKY/WX    TMP DP  RH WIND       PRES   REMARKS
CRAIG          NOT AVBL
HAYDEN         PTSUNNY   43  28  56 CALM      29.82S
MEEKER         NOT AVBL
MOUNT WERNER   NOT AVBL
STEAMBOAT SPGS CLOUDY    37  35  90 E9        29.82F
WALDEN         CLOUDY    34  32  93 CALM      29.86F
$$

COZ006>008-011-292200-
...WEST CENTRAL VALLEYS...

CITY           SKY/WX    TMP DP  RH WIND       PRES   REMARKS
GRAND JUNCTION NOT AVBL
MONTROSE       NOT AVBL
EAGLE          NOT AVBL
RIFLE          NOT AVBL
DELTA          NOT AVBL
NUCLA          NOT AVBL
$$

COZ017>023-064>068-292200-
...SOUTHWEST COLORADO...

CITY           SKY/WX    TMP DP  RH WIND       PRES   REMARKS
DURANGO        NOT AVBL
CORTEZ         NOT AVBL
PAGOSA SPRINGS NOT AVBL
TELLURIDE      NOT AVBL
WOLF CREEK PAS LGT SNOW  23  21  93 SW16      29.89F VSB 3/4 WCI  10
$$

COZ009-010-012-014-032>034-037-058>063-292200-
...CENTRAL COLORADO...

CITY           SKY/WX    TMP DP  RH WIND       PRES   REMARKS
ASPEN          LGT SNOW  35  32  88 CALM      29.81F FOG
BUENA VISTA    LGT SNOW  33  30  89 SE3       29.84F
COPPER MTN     NOT AVBL
BERTHOUD PASS  SNOW      18   9  68 E18G29    29.88F VSB 1/4 WCI   2
COTTONWOOD PAS LGT SNOW  32  30  93 E3        29.85F
GUNNISON       PTSUNNY   36  30  80 E5        29.85F
KREMMLING      LGT SNOW  34  32  93 CALM      29.86S
LEADVILLE      NOT AVBL
MONARCH PASS   CLOUDY    23  19  86 NE15      29.94F WCI  10
SALIDA         NOT AVBL
SUNLIGHT       CLOUDY    32  28  86 CALM      29.90S
WILKERSON PASS SNOW     N/A N/A N/A E9        29.89F VSB 1/2
$$

COZ069>075-292200-
...SAN LUIS VALLEY/SANGRE DE CRISTO MOUNTAINS...

CITY           SKY/WX    TMP DP  RH WIND       PRES   REMARKS
ALAMOSA        NOT AVBL
LA VETA PASS   SNOW      27  23  86 MISG      29.84S VSB<1/4
SAGUACHE       LGT RAIN  36  32  87 CALM      29.83F
$$

COZ035-036-038>040-292200-
...NORTHERN COLORADO FRONT RANGE...

CITY           SKY/WX    TMP DP  RH WIND       PRES   REMARKS
DENVER INTL AP NOT AVBL
DMNS CITY PARK   N/A     34  33  97 N7        29.93S WCI  28
AURORA         LGT SNOW  33  33  99 N8        29.94R FOG     WCI  26
FRONT RANGE AP LGT SNOW  32  32 100 N8        29.93F VSB 3/4 WCI  25
ERIE MUNI ARPT LGT SNOW  33  33 100 N3        29.95F VSB 3/4
BOULDER MUN AP SNOW      32  32 100 NW3       29.94F VSB 1/2
CENTENNIAL     NOT AVBL
BROOMFIELD     SNOW      34  34 100 N7        29.95S VSB 1/2 WCI  28
FORT COLLINS   CLOUDY    34  30  86 CALM      29.97F VSB 1/4
LONGMONT       LGT SNOW  35  34  94 N3        29.97F VSB 3/4
$$

COZ041-046-047-076>085-087-088-292200-
...PIKES PEAK/PALMER DIVIDE AND SOUTHERN FOOTHILLS...

CITY           SKY/WX    TMP DP  RH WIND       PRES   REMARKS
COLO. SPRINGS  SNOW      34  30  85 NE13      29.89F VSB 1/4 WCI  25
A. F. ACADEMY  LGT SNOW  32  32 100 NE8       29.88F FOG     WCI  25
SCHRIEVER AFB  NOT AVBL
ELLICOTT       NOT AVBL
FALCON         LGT SNOW  33  30  89 NE9       29.89F WCI  25
FORT CARSON    LGT SNOW  34  32  93 MISG      29.88S VSB 1
LIMON          SNOW      32  32 100 N7        29.90F VSB 1/2 WCI  26
MONUMENT HILL  LGT SNOW  30  28  93 NE9       29.90F VSB 1   WCI  22
TRINIDAD       CLOUDY    36  30  79 N7        29.86S
$$

COZ042>045-048>051-090-091-292200-
...NORTHEAST COLORADO...

CITY           SKY/WX    TMP DP  RH WIND       PRES   REMARKS
GREELEY ARPT   CLOUDY    34  32  93 CALM      29.97F
AKRON          NOT AVBL
BURLINGTON     SNOW      33  31  92 N20       29.84F VSB 1/2 WCI  21
WRAY           NOT AVBL
STERLING       RAIN      37  36  93 E6        29.94F
HOLYOKE        NOT AVBL
FORT MORGAN    LGT SNOW  33  32  98 N5        29.94F VSB 3/4 WCI  28
$$

COZ086-089-092>099-292200-
...SOUTHEAST COLORADO...

CITY           SKY/WX    TMP DP  RH WIND       PRES   REMARKS
PUEBLO         NOT AVBL
LA JUNTA       NOT AVBL
LAMAR          NOT AVBL
SPRINGFIELD      N/A     39  37  92 N15       29.83F
$$




USA.gov is the U.S. government's official web portal to all federal, state and local government web resources and services.